Weather History for LIEE - May, 2013

Change the Weather History Date:

Thursday, May 9, 2013

  Actual Average Record
Temperature  
Mean Temperature 68 °F -  
Max Temperature 76 °F 74 °F 80 °F (2000)
Min Temperature 59 °F 56 °F 44 °F (1997)
Cooling Degree Days 2    
Growing Degree Days 18 (Base 50)    
Moisture  
Dew Point 57 °F    
Average Humidity 71    
Maximum Humidity 83    
Minimum Humidity 39    
Precipitation  
Precipitation 0.00 in 0.03 in - ()
Sea Level Pressure  
Sea Level Pressure 29.99 in    
Wind  
Wind Speed 10 mph ()    
Max Wind Speed 18 mph    
Max Gust Speed -    
Visibility 6.5 miles    
Events      
Averages and records for this station are not official NWS values.
T = Trace of Precipitation, MM = Missing Value Source: Averaged Metar Reports

Daily Weather History Graph

Daily Weather History Graph

Search for Another Location

Airport or City:

Trip Planner

Search our weather history database for the weather conditions in past years. The results will help you decide how hot, cold, wet, or windy it might be!

Date:

Astronomy

May. 09, 2013 Rise Set
Actual Time 6:16 AM CEST 8:24 PM CEST
Civil Twilight 5:46 AM CEST 8:54 PM CEST
Nautical Twilight 5:10 AM CEST 9:30 PM CEST
Astronomical Twilight 4:30 AM CEST 10:10 PM CEST
Moon 5:50 AM CEST (5/9) 8:04 PM CEST (5/9)
Length of Visible Light 15h 07m
Length of Day
14h 08m
Waning Crescent, 0% of the Moon is Illuminated
May 9
Waning Crescent
May 10
New
May 18
First Quarter
May 25
Full
May 31
Last Quarter

Hourly Weather History & Observations

Time (CEST) Temp. Dew Point Humidity Pressure Visibility Wind Dir Wind Speed Gust Speed Precip Events Conditions
12:15 AM 62.6 °F 51.8 °F 68% 30.01 in 6.2 mi NW 8.1 mph - N/A   Partly Cloudy
12:45 AM 62.6 °F 55.4 °F 77% 30.01 in 6.2 mi NW 10.4 mph - N/A   Partly Cloudy
12:55 AM 62.6 °F 55.4 °F 77% 30.01 in 6.2 mi NW 10.4 mph - N/A   Partly Cloudy
1:15 AM 62.6 °F 53.6 °F 72% 30.01 in 6.2 mi NW 10.4 mph - N/A   Partly Cloudy
1:45 AM 60.8 °F 55.4 °F 82% 29.98 in 6.2 mi NW 10.4 mph - N/A   Partly Cloudy
1:55 AM 60.8 °F 55.4 °F 82% 29.98 in 6.2 mi NW 10.4 mph - N/A   Partly Cloudy
2:00 AM 61 °F 55 °F 74% 29.99 in 12 mi NW 10.4 mph - -   Scattered Clouds
2:15 AM 60.8 °F 55.4 °F 82% 29.98 in 6.2 mi NW 5.8 mph - N/A   Partly Cloudy
2:45 AM 60.8 °F 55.4 °F 82% 29.98 in 6.2 mi NW 9.2 mph - N/A   Partly Cloudy
2:55 AM 60.8 °F 55.4 °F 82% 29.98 in 6.2 mi NW 9.2 mph - N/A   Partly Cloudy
3:15 AM 60.8 °F 55.4 °F 82% 29.98 in 6.2 mi WNW 9.2 mph - N/A   Partly Cloudy
3:45 AM 60.8 °F 55.4 °F 82% 29.98 in 6.2 mi WNW 9.2 mph - N/A   Partly Cloudy
3:55 AM 60.8 °F 55.4 °F 82% 29.98 in 6.2 mi WNW 9.2 mph - N/A   Partly Cloudy
4:15 AM 59.0 °F 53.6 °F 82% 29.98 in 6.2 mi NNW 6.9 mph - N/A   Partly Cloudy
4:45 AM 59.0 °F 53.6 °F 82% 29.98 in 6.2 mi NNW 6.9 mph - N/A   Partly Cloudy
4:55 AM 59.0 °F 53.6 °F 82% 29.98 in 6.2 mi NNW 6.9 mph - N/A   Partly Cloudy
5:00 AM 59 °F 54 °F 77% 29.99 in 6 mi NNW 6.9 mph - -   Scattered Clouds
5:15 AM 59.0 °F 53.6 °F 82% 29.98 in 6.2 mi NNW 6.9 mph - N/A   Partly Cloudy
5:45 AM 59.0 °F 53.6 °F 82% 29.98 in 6.2 mi NW 9.2 mph - N/A   Partly Cloudy
5:55 AM 59.0 °F 53.6 °F 82% 29.98 in 6.2 mi NW 9.2 mph - N/A   Partly Cloudy
6:15 AM 59.0 °F 53.6 °F 82% 29.98 in 6.2 mi NW 9.2 mph - N/A   Scattered Clouds
6:45 AM 59.0 °F 53.6 °F 82% 29.98 in 6.2 mi North 4.6 mph - N/A   Scattered Clouds
6:55 AM 59.0 °F 53.6 °F 82% 29.98 in 6.2 mi North 4.6 mph - N/A   Scattered Clouds
7:15 AM 59.0 °F 53.6 °F 82% 29.98 in 6.2 mi NW 8.1 mph - N/A   Scattered Clouds
7:45 AM 60.8 °F 53.6 °F 77% 29.98 in 6.2 mi WNW 10.4 mph - N/A   Scattered Clouds
7:55 AM 60.8 °F 53.6 °F 77% 29.98 in 6.2 mi WNW 10.4 mph - N/A   Scattered Clouds
8:00 AM 60 °F 54 °F 75% 29.99 in 9 mi WNW 10.4 mph - -   Scattered Clouds
8:15 AM 60.8 °F 55.4 °F 82% 29.98 in 6.2 mi NW 9.2 mph - N/A   Mostly Cloudy
8:45 AM 62.6 °F 57.2 °F 82% 30.01 in 6.2 mi WNW 6.9 mph - N/A   Scattered Clouds
8:55 AM 62.6 °F 57.2 °F 82% 30.01 in 6.2 mi WNW 6.9 mph - N/A   Scattered Clouds
9:15 AM 66.2 °F 55.4 °F 68% 30.01 in 6.2 mi WNW 10.4 mph - N/A   Scattered Clouds
9:45 AM 69.8 °F 57.2 °F 64% 30.01 in 6.2 mi NNW 10.4 mph - N/A   Scattered Clouds
9:55 AM 69.8 °F 57.2 °F 64% 30.01 in 6.2 mi NNW 10.4 mph - N/A   Scattered Clouds
10:15 AM 73.4 °F 55.4 °F 53% 30.01 in 6.2 mi NNW 8.1 mph - N/A   Scattered Clouds
10:45 AM 73.4 °F 53.6 °F 50% 30.01 in 6.2 mi WNW 8.1 mph - N/A   Scattered Clouds
11:00 AM 74 °F 54 °F 39% 30.02 in 9 mi WNW 8.1 mph - -   Scattered Clouds
11:15 AM 75.2 °F 55.4 °F 50% 30.01 in 6.2 mi West 9.2 mph - N/A   Scattered Clouds
11:45 AM 77.0 °F 57.2 °F 50% 30.01 in 6.2 mi SW 9.2 mph - N/A   Partly Cloudy
11:55 AM 77.0 °F 57.2 °F 50% 30.01 in 6.2 mi SW 9.2 mph - N/A   Partly Cloudy
12:15 PM 75.2 °F 57.2 °F 53% 30.01 in 6.2 mi SE 15.0 mph - N/A   Partly Cloudy
12:45 PM 73.4 °F 55.4 °F 53% 30.01 in 6.2 mi SE 18.4 mph - N/A   Partly Cloudy
12:55 PM 73.4 °F 55.4 °F 53% 30.01 in 6.2 mi SE 18.4 mph - N/A   Partly Cloudy
1:15 PM 71.6 °F 55.4 °F 57% 30.01 in 6.2 mi SE 18.4 mph - N/A   Partly Cloudy
1:45 PM 71.6 °F 55.4 °F 57% 30.01 in 6.2 mi SSE 17.3 mph - N/A   Partly Cloudy
1:55 PM 71.6 °F 55.4 °F 57% 30.01 in 6.2 mi SSE 17.3 mph - N/A   Partly Cloudy
2:00 PM 72 °F 56 °F 47% 30.02 in 9 mi SSE 17.3 mph - -   Scattered Clouds
2:15 PM 71.6 °F 57.2 °F 60% 30.01 in 6.2 mi SSE 17.3 mph - N/A   Partly Cloudy
2:45 PM 71.6 °F 57.2 °F 60% 30.01 in 6.2 mi SE 17.3 mph - N/A   Partly Cloudy
2:55 PM 71.6 °F 57.2 °F 60% 30.01 in 6.2 mi SE 17.3 mph - N/A   Partly Cloudy
3:15 PM 71.6 °F 57.2 °F 60% 30.01 in 6.2 mi SE 16.1 mph - N/A   Partly Cloudy
3:45 PM 71.6 °F 59.0 °F 64% 29.98 in 6.2 mi SE 16.1 mph - N/A   Partly Cloudy
3:55 PM 71.6 °F 59.0 °F 64% 29.98 in 6.2 mi SE 16.1 mph - N/A   Partly Cloudy
4:15 PM 71.6 °F 59.0 °F 64% 29.98 in 6.2 mi ESE 17.3 mph - N/A   Partly Cloudy
4:45 PM 71.6 °F 60.8 °F 69% 29.98 in 6.2 mi SE 17.3 mph - N/A   Partly Cloudy
4:55 PM 71.6 °F 60.8 °F 69% 29.98 in 6.2 mi SE 17.3 mph - N/A   Partly Cloudy
5:00 PM 71 °F 61 °F 63% 30.00 in 9 mi SE 17.3 mph - -   Scattered Clouds
5:15 PM 69.8 °F 59.0 °F 68% 29.98 in 6.2 mi ESE 17.3 mph - N/A   Scattered Clouds
5:45 PM 69.8 °F 59.0 °F 68% 29.98 in 6.2 mi ESE 16.1 mph - N/A   Partly Cloudy
5:55 PM 69.8 °F 59.0 °F 68% 29.98 in 6.2 mi ESE 16.1 mph - N/A   Partly Cloudy
6:15 PM 69.8 °F 59.0 °F 68% 29.98 in 6.2 mi SE 13.8 mph - N/A   Partly Cloudy
6:45 PM 69.8 °F 59.0 °F 68% 29.95 in 6.2 mi SE 13.8 mph - N/A   Partly Cloudy
6:55 PM 69.8 °F 59.0 °F 68% 29.95 in 6.2 mi SE 13.8 mph - N/A   Partly Cloudy
7:15 PM 69.8 °F 57.2 °F 64% 29.98 in 6.2 mi SE 11.5 mph - N/A   Partly Cloudy
7:45 PM 68.0 °F 59.0 °F 73% 29.98 in 6.2 mi SE 10.4 mph - N/A   Partly Cloudy
7:55 PM 68.0 °F 59.0 °F 73% 29.98 in 6.2 mi SE 10.4 mph - N/A   Partly Cloudy
8:00 PM 69 °F 59 °F 61% 29.98 in 9 mi SE 10.4 mph - -   Scattered Clouds
8:15 PM 68.0 °F 59.0 °F 73% 29.98 in 6.2 mi ESE 6.9 mph - N/A   Partly Cloudy
8:45 PM 66.2 °F 59.0 °F 78% 29.98 in 6.2 mi ESE 8.1 mph - N/A   Scattered Clouds
8:55 PM 66.2 °F 59.0 °F 78% 29.98 in 6.2 mi ESE 8.1 mph - N/A   Scattered Clouds
9:15 PM 66.2 °F 57.2 °F 73% 29.98 in 6.2 mi SE 5.8 mph - N/A   Scattered Clouds
9:45 PM 66.2 °F 59.0 °F 78% 29.98 in 6.2 mi SE 4.6 mph - N/A   Partly Cloudy
9:55 PM 66.2 °F 59.0 °F 78% 29.98 in 6.2 mi SE 4.6 mph - N/A   Partly Cloudy
10:15 PM 64.4 °F 59.0 °F 83% 30.01 in 6.2 mi SE 4.6 mph - N/A   Scattered Clouds
10:45 PM 64.4 °F 59.0 °F 83% 30.01 in 6.2 mi NE 5.8 mph - N/A   Partly Cloudy
10:55 PM 64.4 °F 59.0 °F 83% 30.01 in 6.2 mi NE 5.8 mph - N/A   Partly Cloudy
11:00 PM 65 °F 59 °F 74% 30.02 in 9 mi NE 5.8 mph - -   Scattered Clouds
11:15 PM 64.4 °F 59.0 °F 83% 30.01 in 6.2 mi NE 8.1 mph - N/A   Partly Cloudy
11:45 PM 62.6 °F 57.2 °F 82% 30.01 in 6.2 mi NE 8.1 mph - N/A   Partly Cloudy
11:55 PM 62.6 °F 57.2 °F 82% 30.01 in 6.2 mi NE 8.1 mph - N/A   Partly Cloudy